Regional Weather Roundup
Issued by NWS

Home | Current Version | Previous Version | Graphics & Text | Print | Product List | Glossary On
Versions: 1 2 3 4 5 6 7 8 9 10 11 12 13 14 15 16 17 18 19 20 21 22 23 24 25 26 27 28 29 30 31 32 33 34 35 36 37 38 39 40 41 42 43 44 45 46 47 48 49 50
734
ASUS44 KJAN 231410
RWRMS

MISSISSIPPI HOURLY WEATHER ROUNDUP
NATIONAL WEATHER SERVICE JACKSON MS
900 AM CDT THU OCT 23 2014

NOTE: "FAIR: INDICATES FEW OR NO CLOUDS BELOW 12,000 FEET WITH NO
SIGNIFICANT WEATHER AND/OR OBSTRUCTIONS TO VISIBILITY.

MSZ001>002-007>008-010>013-018>021-025>028-034>036-231500-
NORTHWEST MISSISSIPPI

CITY           SKY/WX    TMP DP  RH WIND       PRES   REMARKS
CLARKSDALE     FAIR      50  46  87 NE3       30.21R
CLEVELAND      FAIR      51  48  88 E5        30.19R
GREENWOOD      MOSUNNY   50  45  83 NE5       30.20R
GREENVILLE     CLOUDY    52  46  80 NE5       30.19R
GRENADA          N/A    N/A N/A N/A MISG        N/A
OLIVE BRANCH   PTSUNNY   46  46 100 CALM      30.22R
OXFORD         FAIR      45  43  93 CALM      30.22S
TUNICA         MOSUNNY   50  46  87 NE5       30.21F
$$

MSZ003>006-009-014>017-022>024-029>033-037>039-231500-
NORTHEAST MISSISSIPPI

CITY           SKY/WX    TMP DP  RH WIND       PRES   REMARKS
COLUMBUS AFB   SUNNY     48  45  90 CALM      30.20R
CORINTH        FAIR      46  45  93 CALM      30.20R
GOLDN TRIANGLE MOSUNNY   46  41  81 NW3       30.19R
STARKVILLE     FAIR      46  45  93 CALM      30.20R
TUPELO         SUNNY     49  43  80 NE5       30.20R
$$

MSZ040-058-231500-
CENTRAL MISSISSIPPI

CITY           SKY/WX    TMP DP  RH WIND       PRES   REMARKS
JACKSON INTL   MOSUNNY   53  46  77 NE6       30.18R
JACKSON HAWKNS MOSUNNY   55  46  71 NE6       30.18R
MERIDIAN KEY   SUNNY     50  45  83 N5        30.17S
MERIDIAN NAS   MOSUNNY   49  44  83 NW3       30.18R
RAYMOND        FAIR      50  46  87 MISG      30.17F
VICKSBURG      MOSUNNY   53  48  83 NE6       30.18R
$$

MSZ059>079-231500-
SOUTH MISSISSIPPI

CITY           SKY/WX    TMP DP  RH WIND       PRES   REMARKS
BROOKHAVEN     FAIR      52  46  82 N5        30.18R
COLUMBIA         N/A    N/A N/A N/A MISG        N/A
HATTIESBURG    SUNNY     53  46  77 CALM      30.16R
MCCOMB         SUNNY     55  44  66 NE7       30.15R
NATCHEZ        PTSUNNY   54  46  76 NE5       30.16R
PINE BELT      SUNNY     54  43  66 NE8       30.16R
$$

MSZ080>082-231500-
COASTAL MISSISSIPPI

CITY           SKY/WX    TMP DP  RH WIND       PRES   REMARKS
BAY ST LOUIS   SUNNY     57  43  58 NE7       30.12R
BILOXI         SUNNY     56  45  66 NE9       30.12R
PASCAGOULA     SUNNY     55  47  74 N7        30.12R
GULFPORT       SUNNY     57  45  64 NE9       30.11R
$$



USA.gov is the U.S. government's official web portal to all federal, state and local government web resources and services.